Regional Weather Roundup
Issued by NWS

Home | Current Version | Previous Version | Text Only | Print | Product List | Glossary Off
Versions: 1 2 3 4 5 6 7 8 9 10 11 12 13 14 15 16 17 18 19 20 21 22 23 24 25 26 27

000
ASUS45 KSLC 201810
RWRUT

UTAH REGIONAL WEATHER ROUNDUP
NATIONAL WEATHER SERVICE SALT LAKE CITY UT
1200 PM MDT SUN AUG 20 2017

UTZ001>011-023>025-201900-

NORTHERN UTAH

CITY           SKY/WX    TMP DP  RH WIND       PRES   REMARKS
BRIGHAM CITY   SUNNY     83  36  18 CALM      30.07S
HILL AFB       MOSUNNY   84  44  24 SE6       30.10S
LOGAN          SUNNY     79  36  21 N6        30.09F
OGDEN          MOSUNNY   86  44  23 SW9       30.06F
SALT LAKE CITY MOSUNNY   89  43  20 CALM      30.04F
TOOELE VALLEY  MOSUNNY   82  50  32 N9        30.06F
WENDOVER       SUNNY     86  33  15 SE8       30.06F
HEBER CITY     SUNNY     81  41  24 W6        30.14F
WEST JORDAN    SUNNY     86  53  32 SE16G22   30.09S

$$

UTZ011>015-024>027-201900-

CENTRAL/NORTHEAST UTAH

CITY           SKY/WX    TMP DP  RH WIND       PRES   REMARKS
PROVO AIRPORT  MOSUNNY   88  43  20 VRB5      30.10F
MOAB/CANYONLAN SUNNY     90  36  14 S5        30.05F
DELTA          SUNNY     88  30  12 SW15G21   30.10F
PRICE          SUNNY     85  38  18 S6        30.17F
ROOSEVELT      SUNNY     81  39  22 NE3       30.15F
VERNAL         SUNNY     81  42  25 CALM      30.13F

$$

UTZ013>016-019>022-027-201900-

SOUTHERN UTAH

CITY           SKY/WX    TMP DP  RH WIND       PRES   REMARKS
BRYCE CANYON   MOSUNNY   71  43  36 SE6       30.33F
CEDAR CITY     SUNNY     85  40  20 SW10      30.17F
MILFORD        MOSUNNY   86  37  17 S13G23    30.12F
ST GEORGE      CLEAR     86  44  23 VRB3      30.01F
HANKSVILLE     MOSUNNY   88  34  14 CALM      30.08F
BLANDING       SUNNY     83  38  20 SW5       30.23F

$$

REGIONAL REPORTS     COLORADO/ARIZONA

CITY           SKY/WX    TMP DP  RH WIND       PRES   REMARKS
CRAIG, CO      SUNNY     83  33  16 N6        30.19F
GRAND JUNCTION SUNNY     84  39  20 SE5       30.09F
RIFLE, CO      SUNNY     82  38  20 VRB5      30.15F
MONTROSE, CO   SUNNY     80  42  25 VRB5      30.17F
CORTEZ, CO     CLOUDY    84  40  21 VRB3      30.16F
COLORADO CITY    N/A     88  43  20 E3        30.16F
PAGE, AZ       MOSUNNY   92  37  14 NW9G20    30.06F
GRAND CANYON   MOSUNNY   78  43  28 VRB5      30.28S
KINGMAN, AZ    SUNNY     90  44  20 VRB5      30.04F
FLAGSTAFF, AZ  CLOUDY    72  48  42 W9        30.30F

$$

REGIONAL REPORTS    NEVADA/IDAHO/WYOMING

CITY           SKY/WX    TMP DP  RH WIND       PRES   REMARKS
LAS VEGAS, NV  MOSUNNY   96  44  16 E8        29.93S HX  92
ELY, NY        SUNNY     82  31  15 CALM      30.18F
ELKO, NV       SUNNY     83  27  13 NE7       30.11F
POCATELLO, ID  SUNNY     76  37  24 W13       30.12F
BURLEY, ID     SUNNY     72  43  35 W12       30.10F
FORT BRIDGER,  CLEAR     82  30  15 NW13G22   30.26F
EVANSTON, WY   SUNNY     79  35  20 SW13G20   30.25S
ROCK SPRINGS,  SUNNY     80  33  18 W8        30.21F

$$




USA.gov is the U.S. government's official web portal to all federal, state and local government web resources and services.